User: anonymous   Login
Location: Glens Falls
(43.3090°N, 73.6440°W)
Time: 11:24:07
(UTC-04:00)
Language:

Cosmos 1908 Rocket - Orbit

View from above orbital plane
View from above orbital plane
View from above satellite
View from above satellite

Ground track
Ground track

The orbit data is extracted from the following two-line orbital elements,

1 18749U 88001B   18198.33493883  .00000065  00000-0  50244-5 0  9995
2 18749  82.5154 294.6581 0020358  88.9825 329.7874 14.83159717649048
Epoch (UTC): 17 July 2018 08:02:18
Eccentricity: 0.0020358
inclination: 82.5154°
perigee height: 605 km
apogee height: 633 km
right ascension of ascending node: 294.6581°
argument of perigee: 88.9825°
revolutions per day: 14.83159717
mean anomaly at epoch: 329.7874°
orbit number at epoch: 64904

The dashed part of the orbit path shows where the satellite is in the earth's shadow,  

DLR